RYR7DC EIDW-LOWW

Flight info

Callsign RYR7DC
Flight time N/A
Altitude 37000
Route ENDEQ3J ENDEQ Q36 ALAVA Z195 MALUD UL975 WAL M16 DOLAS L603 LAMSO DCT NOMKA DCT TALEG L620 PIKIB DCT OMELO DCT EVIKU DCT BITSI DCT MIKOV MIKOV8W
Aircraft B738/M-SDE2E3FGHIRWXY/LB1

Departure

Time 2026-05-01 08:19
Airport Dublin Airport (EIDW)

Arrival

Time N/A
Airport Vienna International Airport (LOWW)
Time Latitude Longitude Altitude Speed Heading
2026-05-01 07:57 53.43010 -6.24943 219 ft 0 kts
2026-05-01 08:10 53.42998 -6.24945 217 ft 3 kts
2026-05-01 08:10 53.42956 -6.24929 218 ft 3 kts 315°
2026-05-01 08:11 53.42947 -6.24904 210 ft 1 kts 276°
2026-05-01 08:12 53.42947 -6.24908 211 ft 2 kts 275°
2026-05-01 08:13 53.42951 -6.24962 214 ft 8 kts 276°
2026-05-01 08:13 53.42956 -6.25076 219 ft 10 kts 274°
2026-05-01 08:13 53.42996 -6.25282 210 ft 10 kts 334°
2026-05-01 08:14 53.43057 -6.25327 210 ft 9 kts 336°
2026-05-01 08:14 53.43117 -6.25369 217 ft 9 kts 337°
2026-05-01 08:14 53.43176 -6.25391 214 ft 9 kts 19°
2026-05-01 08:14 53.43207 -6.25305 214 ft 9 kts 73°
2026-05-01 08:15 53.43207 -6.25204 213 ft 9 kts 94°
2026-05-01 08:15 53.43193 -6.24923 210 ft 16 kts 95°
2026-05-01 08:15 53.43182 -6.24745 210 ft 13 kts 96°
2026-05-01 08:16 53.43194 -6.24598 210 ft 13 kts 94°
2026-05-01 08:16 53.43193 -6.24456 210 ft 12 kts 67°
2026-05-01 08:16 53.43269 -6.24407 210 ft 12 kts
2026-05-01 08:16 53.43336 -6.24349 210 ft 12 kts 73°
2026-05-01 08:17 53.43332 -6.24213 210 ft 12 kts 95°
2026-05-01 08:17 53.43324 -6.24061 214 ft 15 kts 95°
2026-05-01 08:17 53.43329 -6.23888 211 ft 15 kts 54°
2026-05-01 08:17 53.43426 -6.23849 210 ft 15 kts
2026-05-01 08:18 53.43491 -6.23932 210 ft 15 kts 271°
2026-05-01 08:18 53.43569 -6.25399 209 ft 129 kts 275°
2026-05-01 08:19 53.43782 -6.29060 1027 ft 169 kts 274°
2026-05-01 08:19 53.44175 -6.30908 1795 ft 177 kts 307°
2026-05-01 08:19 53.45240 -6.32010 2500 ft 180 kts 336°
2026-05-01 08:19 53.46289 -6.33172 3152 ft 186 kts 307°
2026-05-01 08:20 53.47026 -6.34957 3787 ft 194 kts 302°
2026-05-01 08:20 53.48234 -6.36292 4005 ft 228 kts 349°
2026-05-01 08:20 53.49868 -6.36260 4360 ft 241 kts
2026-05-01 08:20 53.51494 -6.35566 4906 ft 243 kts 36°
2026-05-01 08:21 53.52527 -6.33447 5511 ft 234 kts 77°
2026-05-01 08:21 53.52714 -6.30702 5826 ft 244 kts 93°
2026-05-01 08:21 53.52719 -6.27822 6355 ft 248 kts 98°
2026-05-01 08:21 53.52620 -6.24889 6844 ft 259 kts 99°
2026-05-01 08:22 53.52514 -6.21770 7328 ft 272 kts 98°
2026-05-01 08:22 53.52432 -6.18558 8048 ft 277 kts 97°
2026-05-01 08:22 53.52367 -6.15297 8748 ft 281 kts 97°
2026-05-01 08:22 53.52308 -6.12003 9093 ft 283 kts 97°
2026-05-01 08:23 53.52249 -6.08670 9100 ft 287 kts 97°
2026-05-01 08:23 53.52051 -6.05365 9180 ft 283 kts 107°
2026-05-01 08:23 53.51579 -6.02134 9876 ft 283 kts 110°
2026-05-01 08:23 53.51071 -5.98930 10577 ft 288 kts 110°
2026-05-01 08:24 53.50796 -5.97180 10673 ft 301 kts 109°
2026-05-01 08:24 53.50298 -5.93912 10851 ft 322 kts 108°
2026-05-01 08:24 53.49935 -5.91457 11110 ft 330 kts 108°